Location: Newark
(45.5167°N, 11.1667°E)
Time: 04:51:08
(UTC+00:00)

Altair - All Passes

Search period start: 15 December 2019 00:00
Search period end: 25 December 2019 00:00
Orbit: 1502 x 1682 km, 47.2° (Epoch: 14 December)

Date Brightness Start Highest point End Pass type
(mag) Time Alt. Az. Time Alt. Az. Time Alt. Az.
15 Dec - 01:28:52 10° WNW 01:37:32 46° SW 01:46:06 10° SSE visible
15 Dec - 03:36:43 10° W 03:40:18 13° WSW 03:43:54 10° SSW visible
15 Dec - 16:48:38 10° S 16:55:15 21° SE 17:01:43 10° E visible
15 Dec - 18:49:07 10° SW 18:58:34 59° SSE 19:07:41 10° ENE visible
15 Dec - 20:53:31 10° W 21:03:08 84° N 21:12:26 10° E visible
15 Dec - 22:58:44 10° WNW 23:08:11 88° NNE 23:17:24 10° ESE night (unlit)
16 Dec - 01:03:41 10° WNW 01:12:27 50° SW 01:21:08 10° SE night (unlit)
16 Dec - 03:10:51 10° W 03:15:19 15° SW 03:19:48 10° SSW visible
16 Dec - 16:24:04 10° SSE 16:30:13 19° SE 16:36:15 10° E visible
16 Dec - 18:24:02 10° SW 18:33:27 56° SE 18:42:31 10° ENE visible
16 Dec - 20:28:17 10° WSW 20:37:56 86° NNW 20:47:16 10° ENE visible
16 Dec - 22:33:31 10° WNW 22:43:00 87° NNE 22:52:14 10° ESE night (unlit)
17 Dec - 00:38:28 10° WNW 00:47:21 53° SW 00:56:08 10° SE night (unlit)
17 Dec - 02:45:10 10° W 02:50:20 17° SW 02:55:30 10° SSW visible
17 Dec - 15:59:35 10° SSE 16:05:12 17° SE 16:10:42 10° E visible
17 Dec - 17:58:59 10° SW 18:08:20 52° SE 18:17:21 10° ENE visible
17 Dec - 20:03:03 10° WSW 20:12:45 88° NNW 20:22:06 10° ENE visible
17 Dec - 22:08:18 10° W 22:17:49 85° N 22:27:04 10° E visible
18 Dec - 00:13:16 10° WNW 00:22:16 56° SW 00:31:08 10° SE night (unlit)
18 Dec - 02:19:36 10° W 02:25:21 18° SW 02:31:04 10° SSW night (unlit)
18 Dec - 15:35:14 10° SSE 15:40:11 15° SE 15:45:04 10° E daylight
18 Dec - 17:33:56 10° SSW 17:43:13 49° SE 17:52:10 10° ENE visible
18 Dec - 19:37:50 10° WSW 19:47:34 89° N 19:56:57 10° ENE visible
18 Dec - 21:43:05 10° W 21:52:38 84° N 22:01:54 10° E visible
18 Dec - 23:48:04 10° WNW 23:57:10 60° SSW 00:06:06 10° SE night (unlit)
19 Dec - 01:54:08 10° W 02:00:21 21° SW 02:06:33 10° S night (unlit)
19 Dec - 15:11:03 10° SSE 15:15:11 13° ESE 15:19:15 10° E daylight
19 Dec - 17:08:55 10° SSW 17:18:07 46° SE 17:26:59 10° ENE visible
19 Dec - 19:12:37 10° WSW 19:22:23 88° SSE 19:31:47 10° ENE visible
19 Dec - 21:17:51 10° W 21:27:27 83° N 21:36:44 10° E visible
19 Dec - 23:22:52 10° WNW 23:32:04 63° SSW 23:41:04 10° SE night (unlit)
20 Dec - 01:28:42 10° W 01:35:21 23° SW 01:41:57 10° S night (unlit)
20 Dec - 14:47:12 10° SE 14:50:10 12° ESE 14:53:07 10° ESE daylight
20 Dec - 16:43:55 10° SSW 16:53:01 43° SE 17:01:47 10° ENE visible
20 Dec - 18:47:24 10° WSW 18:57:12 86° SSE 19:06:38 10° ENE visible
20 Dec - 20:52:37 10° W 21:02:15 82° N 21:11:33 10° E visible
20 Dec - 22:57:40 10° WNW 23:06:57 67° SSW 23:16:00 10° SE night (unlit)
21 Dec - 01:03:18 10° W 01:10:19 25° SW 01:17:17 10° S night (unlit)
21 Dec - 14:25:03 10° ESE 14:25:11 10° ESE 14:25:18 10° ESE daylight
21 Dec - 16:18:57 10° SSW 16:27:55 40° SE 16:36:35 10° ENE visible
21 Dec - 18:22:12 10° WSW 18:32:01 84° SSE 18:41:28 10° ENE visible
21 Dec - 20:27:23 10° W 20:37:03 81° N 20:46:23 10° E visible
21 Dec - 22:32:28 10° WNW 22:41:50 70° SSW 22:50:56 10° SE visible
22 Dec - 00:37:57 10° W 00:45:19 27° SW 00:52:35 10° S night (unlit)
22 Dec - 15:54:01 10° SSW 16:02:49 38° SE 16:11:22 10° ENE visible
22 Dec - 17:57:00 10° WSW 18:06:51 81° SSE 18:16:18 10° ENE visible
22 Dec - 20:02:09 10° W 20:11:51 81° N 20:21:12 10° E visible
22 Dec - 22:07:16 10° WNW 22:16:42 73° SSW 22:25:51 10° ESE visible
23 Dec - 00:12:38 10° WNW 00:20:17 30° SW 00:27:50 10° S night (unlit)
23 Dec - 15:29:06 10° SSW 15:37:44 35° SE 15:46:08 10° ENE daylight
23 Dec - 17:31:49 10° WSW 17:41:40 78° SSE 17:51:09 10° ENE visible
23 Dec - 19:36:54 10° W 19:46:39 81° N 19:56:02 10° E visible
23 Dec - 21:42:03 10° WNW 21:51:33 77° SSW 22:00:45 10° ESE visible
23 Dec - 23:47:20 10° WNW 23:55:15 32° SW 00:03:02 10° SSE night (unlit)
24 Dec - 15:04:13 10° SSW 15:12:40 33° SE 15:20:51 10° ENE daylight
24 Dec - 17:06:38 10° WSW 17:16:30 75° SSE 17:26:00 10° ENE visible
24 Dec - 19:11:39 10° W 19:21:27 81° N 19:30:51 10° E visible
24 Dec - 21:16:51 10° WNW 21:26:24 80° SSW 21:35:38 10° ESE visible
24 Dec - 23:22:03 10° WNW 23:30:13 35° SW 23:38:13 10° SSE night (unlit)
